Tracking 21076 objects as of 9-Aug-2020
HD Live streaming from Space Station
objects crossing your sky now
Track the most recent launched group of Starlink satellites

METEOR 3-2

Track METEOR 3-2 now!
10-day predictions
METEOR 3-2 is classified as:


NORAD ID: 19336
Int'l Code: 1988-064A
Perigee: 1,189.2 km
Apogee: 1,216.0 km
Inclination: 82.5 °
Period: 109.3 minutes
Semi major axis: 7573 km
RCS: 6.8041 m2 (large)
Launch date: July 26, 1988
Source: Commonwealth of Independent States (former USSR) (CIS)
Launch site: PLESETSK MISSILE AND SPACE COMPLEX (PKMTR)
aabbcc
Your satellite tracking list
Your tracking list is empty




NASA's NSSDC Master Catalog

Two Line Element Set (TLE):
1 19336U 88064A   20221.90482191 +.00000148 +00000-0 +35012-3 0  9996
2 19336 082.5420 044.6461 0017701 149.9705 322.1997 13.17191364540144
Source of the keplerian elements: AFSPC